Regional Weather Roundup
Issued by NWS

Home | Current Version | Previous Version | Graphics & Text | Print | Product List | Glossary On
Versions: 1 2 3 4 5 6 7 8 9 10 11 12 13 14 15 16 17 18 19 20 21 22 23 24 25 26 27 28 29 30 31 32 33 34 35 36 37 38 39 40 41 42 43 44 45 46 47 48 49 50
415
ASUS43 KDTX 180310
RWRMI
MICHIGAN HOURLY REGIONAL WEATHER ROUNDUP
NATIONAL WEATHER SERVICE DETROIT/PONTIAC MI
1000 PM EST TUE JAN 17 2017

NOTE: "FAIR" INDICATES FEW OR NO CLOUDS BELOW 12,000 FEET WITH NO
SIGNIFICANT WEATHER AND/OR OBSTRUCTION TO VISIBILITY.

MIZ047>049-052>055-059>063-066>070-074>076-081>083-180400-
SOUTHEAST LOWER MICHIGAN

CITY           SKY/WX    TMP DP  RH WIND       PRES   REMARKS
ADRIAN         CLOUDY    38  38 100 W9G20     29.92F WCI  31
ALMA           CLOUDY    34  34  99 SW6       29.89S FOG     WCI  29
ANN ARBOR      CLOUDY    38  37  97 W10       29.90S WCI  31
BAD AXE        FOG       33  33 100 W7        29.85S VSB 1/2 WCI  27
CARO           FOG       34  33  97 SW8       29.86S VSB 1   WCI  27
DETROIT CITY   CLOUDY    39  39 100 MISG      29.90R FOG
DETROIT        CLOUDY    40  38  93 W10       29.91R WCI  33
FLINT          CLOUDY    35  35 100 W6        29.89S FOG     WCI  30
GROSSE ILE     CLOUDY    40  38  90 W6        29.90R
HILLSDALE      CLOUDY    36  36 100 W10       29.90F FOG     WCI  28
HOWELL         CLOUDY    37  36  96 W12       29.89F FOG     WCI  29

CITY           SKY/WX    TMP DP  RH WIND       PRES   REMARKS
JACKSON        CLOUDY    37  35  92 W9        29.91S FOG     WCI  30
LAMBERTVILLE   CLOUDY    42  39  91 W7        29.93R
LANSING        LGT RAIN  37  35  92 W12       29.91S FOG     WCI  29
LAPEER         CLOUDY    35  35  99 W6        29.87S WCI  30
MASON          CLOUDY    36  36 100 W7        29.90F FOG     WCI  30
MONROE         CLOUDY    40  39  98 W13       29.91R WCI  32
MT. CLEMENS    LGT RAIN  39  39 100 W12       29.86S WCI  32
PONTIAC        DRIZZLE   36  34  92 W12       29.87R FOG     WCI  28
PORT HOPE        N/A     35  34  96 VRB6      29.82R WCI  30
PORT HURON     CLOUDY    36  36 100 W7        29.87R WCI  30
TRI CITIES     CLOUDY    34  34 100 W7        29.88S FOG     WCI  28
MIDLAND        CLOUDY    35  34  97 SW3       29.87S FOG
TROY           CLOUDY    39  37  91 W9G16     29.90S FOG     WCI  33
SAGINAW HB     CLOUDY    34  32  93 W6        29.88S FOG     WCI  29
$$
MIZ043>046-050>051-056>058-064>065-071>073-077>080-180400-
SOUTHWEST LOWER MICHIGAN

CITY           SKY/WX    TMP DP  RH WIND       PRES   REMARKS
BATTLE CREEK   CLOUDY    37  37 100 W13       29.93R WCI  29
BENTON HARBOR  MIX PCPN  37  35  92 W13       29.96S FOG     WCI  29
BIG RAPIDS     MIX PCPN  33  33  96 CALM      29.87R
COLDWATER      CLOUDY    37  37 100 W10G16    29.93S FOG     WCI  30
FREMONT        FOG       35  35 100 W5        29.89R VSB 3/4 WCI  31
HOLLAND        CLOUDY    37  35  92 W9        29.93S FOG     WCI  30
GRAND RAPIDS   DRIZZLE   36  35  96 W12       29.90F FOG     WCI  28
IONIA          CLOUDY    35  35  99 SW8       29.89S FOG     WCI  29
KALAMAZOO      CLOUDY    37  34  89 W13G21    29.94R FOG     WCI  29
LUDINGTON      CLOUDY    35  35 100 CALM      29.88R FOG
MARSHALL       CLOUDY    37  36  98 W8        29.92S WCI  30
MOUNT PLEASANT CLOUDY    34  33  99 SW3       29.87R FOG
MUSKEGON       DRIZZLE   37  36  96 W9        29.91S FOG     WCI  30
SOUTH HAVEN    LGT RAIN  37  36  97 W9        29.95S WCI  30
$$
MIZ016>042-180400-
NORTHERN LOWER MICHIGAN

CITY           SKY/WX    TMP DP  RH WIND       PRES   REMARKS
ALPENA         CLOUDY    34  33  96 N5        29.87R FOG     WCI  30
BEAVER ISLAND  CLOUDY    32  32 100 CALM      29.90S FOG
BELLAIRE       CLOUDY    33  32  97 CALM      29.89R
CADILLAC       CLOUDY    35  32  91 CALM      29.85R FOG
CHARLEVOIX     CLOUDY    32  32 100 CALM      29.92R FOG
FRANKFORT      CLOUDY    35  35 100 CALM      29.89R FOG
GAYLORD        CLOUDY    32  30  92 N3        29.85R FOG
GRAYLING       CLOUDY    34  33  95 CALM      29.87R FOG
HARBOR SPRINGS CLOUDY    32  31  96 CALM      29.89R
HOUGHTON LAKE  CLOUDY    33  32  96 W3        29.86R FOG
MANISTEE       LGT RAIN  34  33  96 CALM      29.88S VSB 1/4
OSCODA         LGT SNOW  35  34  97 NW5       29.84S WCI  31
PELLSTON       CLOUDY    32  29  88 NE3       29.89S
ROGERS CITY    CLOUDY    33  32  95 NE5       29.88S WCI  29
TRAVERSE CITY  CLOUDY    34  32  92 CALM      29.88R FOG
$$
MIZ007>008-015-180400-
EASTERN UPPER MICHIGAN

CITY           SKY/WX    TMP DP  RH WIND       PRES   REMARKS
KINROSS        CLOUDY    31  27  85 CALM      29.89S
MACKINAC ISLAN CLOUDY    32  32 100 E3        29.88S
NEWBERRY       CLOUDY    31  28  91 CALM      29.88F
S. S. MARIE    CLOUDY    35  27  72 CALM      29.89S
MUNISING         N/A     30  29  96 S3        29.89S
$$
MIZ004>006-011>014-085-180400-
CENTRAL UPPER MICHIGAN

CITY           SKY/WX    TMP DP  RH WIND       PRES   REMARKS
MANISTIQUE     CLOUDY    32  31  97 CALM      29.89S
ESCANABA       CLOUDY    33  32  96 CALM      29.91S
SAWYER-GWINN   FOG       25  23  93 CALM      29.87F VSB 1/4
$$
MIZ001>003-009>011-084-180400-
WESTERN UPPER MICHIGAN

CITY           SKY/WX    TMP DP  RH WIND       PRES   REMARKS
IRON MOUNTAIN  FOG       25  21  85 CALM      29.88S VSB 1/4
HOUGHTON       FOG       24  22  91 W6        29.85F VSB 1/4 WCI  17
COPPER HARBOR    N/A     27  26  96 SW5       29.86F WCI  22
IRONWOOD       CLOUDY    18  16  93 CALM      29.89F FOG
$$

ABBREVIATIONS USED IN REMARKS
   TC - TEMPERATURE IN CELSIUS
  WCI - WIND CHILL INDEX
   HX - HEAT INDEX
  VSB - VISIBILITY





USA.gov is the U.S. government's official web portal to all federal, state and local government web resources and services.